User: anonymous   Login
Location: ??
(35.5052°N, 139.7262°E)
Time: 18:40:33
(UTC+00:00)
Language:

PEGASUS DEB - Orbit

View from above orbital plane
View from above orbital plane
View from above satellite
View from above satellite

Ground track
Ground track

The orbit data is extracted from the following two-line orbital elements,

1 39919U 94029AFS 22015.71108266  .00000947  00000-0  21365-3 0  9996
2 39919  81.8540 182.1428 0294455  96.9294 266.5478 14.31776380398045
Epoch (UTC): 15 January 2022 17:03:57
Eccentricity: 0.0294455
inclination: 81.8540°
perigee height: 575 km
apogee height: 997 km
right ascension of ascending node: 182.1428°
argument of perigee: 96.9294°
revolutions per day: 14.31776380
mean anomaly at epoch: 266.5478°
orbit number at epoch: 39804

The dashed part of the orbit path shows where the satellite is in the earth's shadow,  

DLR